Location: Newark
(21.1700°N, 79.6500°E)
Time: 16:47:56
(UTC+00:00)

LightSail 2 - Visible Passes

Search period start: 14 December 2019 00:00
Search period end: 24 December 2019 00:00
Orbit: 696 x 730 km, 24.0° (Epoch: 13 December)

Date Brightness Start Highest point End Pass type
(mag) Time Alt. Az. Time Alt. Az. Time Alt. Az.
14 Dec 6.8 12:29:47 10° W 12:34:27 33° SSW 12:39:05 10° SE visible
15 Dec 7.8 13:18:50 10° WSW 13:21:36 14° SSW 13:24:21 10° S visible
16 Dec 7.7 12:19:43 10° WSW 12:23:33 21° SSW 12:27:20 10° SSE visible
19 Dec 8.2 00:40:51 10° SSE 00:41:40 10° SSE 00:42:30 10° SE visible
21 Dec 7.7 00:27:12 10° SSW 00:30:42 19° SSE 00:34:13 10° ESE visible
21 Dec 7.8 23:30:21 10° S 23:32:38 13° SSE 23:34:54 10° SE visible
23 Dec 6.8 00:15:17 10° SW 00:19:43 31° SSE 00:24:10 10° E visible
23 Dec 7.2 23:18:43 14° SSW 23:21:37 22° SSE 23:25:31 10° ESE visible
